User: anonymous   Login
Location: ???????
(55.4362°N, 38.1183°E)
Time: 19:11:19
(UTC+00:00)
Language:

CZ-4B DEB - Orbit

View from above orbital plane
View from above orbital plane
View from above satellite
View from above satellite

Ground track
Ground track

The orbit data is extracted from the following two-line orbital elements,

1 46483U 20067F   22024.48798352  .00002298  00000-0  19190-3 0  9990
2 46483  97.9335 117.3285 0097258 201.6938 158.0150 14.95991599 72370
Epoch (UTC): 24 January 2022 11:42:41
Eccentricity: 0.0097258
inclination: 97.9335°
perigee height: 511 km
apogee height: 647 km
right ascension of ascending node: 117.3285°
argument of perigee: 201.6938°
revolutions per day: 14.95991599
mean anomaly at epoch: 158.0150°
orbit number at epoch: 7237

The dashed part of the orbit path shows where the satellite is in the earth's shadow,  

DLR